User: anonymous   Login
Location: Unspecified
(0.0000°N, 0.0000°E)
Time: 13:45:16
(UTC+00:00)
Language:

SEEDS - Orbit

View from above orbital plane
View from above orbital plane
View from above satellite
View from above satellite

Ground track
Ground track

The orbit data is extracted from the following two-line orbital elements,

1 32791U 08021J   17113.72076581 +.00000974 +00000-0 +10593-3 0  9993
2 32791 097.5685 144.6630 0012789 341.0945 018.9797 14.90170723487038
Epoch (UTC): 23 April 2017 17:17:54
Eccentricity: 0.0012789
inclination: 97.5685°
perigee height: 588 km
apogee height: 606 km
right ascension of ascending node: 144.6630°
argument of perigee: 341.0945°
revolutions per day: 14.90170723
mean anomaly at epoch: 18.9797°
orbit number at epoch: 48703

The dashed part of the orbit path shows where the satellite is in the earth's shadow,  

DLR